Regional Weather Roundup
Issued by NWS

Home | Current Version | Previous Version | Text Only | Print | Product List | Glossary On
Versions: 1 2 3 4 5 6 7 8 9 10 11 12 13 14 15 16 17 18 19 20 21 22 23 24 25 26 27 28 29 30 31 32 33 34 35 36 37 38 39 40 41 42 43 44 45 46 47 48 49 50
000
ASUS43 KDTX 091701
RWRMI
MICHIGAN HOURLY REGIONAL WEATHER ROUNDUP
NATIONAL WEATHER SERVICE DETROIT/PONTIAC MI
1200 PM EST FRI DEC 09 2016

NOTE: "FAIR" INDICATES FEW OR NO CLOUDS BELOW 12,000 FEET WITH NO
SIGNIFICANT WEATHER AND/OR OBSTRUCTION TO VISIBILITY.

MIZ047>049-052>055-059>063-066>070-074>076-081>083-091800-
SOUTHEAST LOWER MICHIGAN

CITY           SKY/WX    TMP DP  RH WIND       PRES   REMARKS
ADRIAN         FLURRIES  27  23  85 W8        30.41F WCI  19
ALMA           SUNNY     30  16  56 W13G20    30.37F WCI  20
ANN ARBOR      CLOUDY    30  19  63 W13       30.37F WCI  20
BAD AXE        CLOUDY    28  13  54 NW10G16   30.33F WCI  18
CARO           LGT SNOW  28  23  84 W9        30.35S WCI  19
DETROIT CITY   PTSUNNY   31  15  52 NW12G21   30.37F WCI  22
DETROIT        PTSUNNY   32  20  61 W13       30.38F WCI  22
FLINT          MOSUNNY   31  17  56 W14       30.36F WCI  21
GROSSE ILE     PTSUNNY   32  22  66 NW8       30.37F WCI  25
HILLSDALE      LGT SNOW  27  23  86 W10       30.38S WCI  17
HOWELL         PTSUNNY   30  16  55 W10G17    30.36F WCI  21

CITY           SKY/WX    TMP DP  RH WIND       PRES   REMARKS
JACKSON        LGT SNOW  26  22  84 NW9       30.39S WCI  17
LAMBERTVILLE   CLOUDY    32  24  73 W7        30.41F WCI  25
LANSING        PTSUNNY   29  15  56 W14       30.39F WCI  18
LAPEER         NOT AVBL
MASON          PTSUNNY   28  20  69 NW9G17    30.38S WCI  20
MONROE         CLOUDY    32  24  71 W10G17    30.39F WCI  24
PONTIAC        PTSUNNY   28  16  60 NW14G23   30.33F WCI  17
PORT HOPE        N/A     29  16  58 NW13G22   30.31F WCI  19
PORT HURON     CLOUDY    32  21  64 W8G16     30.34F WCI  25
TRI CITIES     CLOUDY    29  21  72 NW9       30.36F WCI  20
MIDLAND        CLOUDY    30  19  63 W8        30.35F WCI  22
TROY           PTSUNNY   32  13  45 W13       30.37F WCI  22
SAGINAW HB     FLURRIES  30  21  69 W13       30.35F WCI  20
$$
MIZ043>046-050>051-056>058-064>065-071>073-077>080-091800-
SOUTHWEST LOWER MICHIGAN

CITY           SKY/WX    TMP DP  RH WIND       PRES   REMARKS
BATTLE CREEK   LGT SNOW  27  24  89 W10       30.41S FOG     WCI  17
BENTON HARBOR  CLOUDY    29  19  66 W16G23    30.47S WCI  17
BIG RAPIDS     CLOUDY    28  15  58 W13       30.35F WCI  17
COLDWATER      LGT SNOW  27  24  89 W9        30.42S WCI  18
FREMONT        CLOUDY    25  19  78 NW7       30.41S WCI  17
HOLLAND        CLOUDY    29  18  63 NW10      30.44R WCI  20
GRAND RAPIDS   FLURRIES  27  18  69 W12       30.41S WCI  17
IONIA          CLOUDY    27  17  65 W12       30.38S WCI  17
KALAMAZOO      LGT SNOW  28  22  78 W7        30.42S WCI  21
LUDINGTON      FLURRIES  26  15  64 NW7G18    30.40S WCI  18
MARSHALL       LGT SNOW  28  23  82 W10       30.40S WCI  19
MOUNT PLEASANT CLOUDY    29  18  62 W10       30.35F WCI  20
MUSKEGON       FLURRIES  28  17  63 NW16G25   30.43S WCI  16
SOUTH HAVEN    LGT SNOW  28  20  71 NW15G21   30.45S WCI  17
$$
MIZ016>042-091800-
NORTHERN LOWER MICHIGAN

CITY           SKY/WX    TMP DP  RH WIND       PRES   REMARKS
ALPENA         PTSUNNY   26  16  65 N8        30.32F WCI  18
BEAVER ISLAND  PTSUNNY   27  19  71 NW7       30.34S WCI  19
BELLAIRE       LGT SNOW  25  23  91 N3        30.34F
CADILLAC       CLOUDY    26  18  70 W9        30.30S WCI  17
CHARLEVOIX     CLOUDY    28  20  72 N8        30.35F WCI  20
FRANKFORT      LGT SNOW  28  25  89 W14G20    30.37S WCI  16
GAYLORD        LGT SNOW  23  16  74 CALM      30.28F
GRAYLING       LGT SNOW  24  19  81 CALM      30.31F
HARBOR SPRINGS LGT SNOW  24  19  80 N6        30.33S WCI  17
HOUGHTON LAKE  FLURRIES  24  19  81 W5        30.32S WCI  18
MANISTEE       LGT SNOW  26  20  77 W18       30.38S WCI  13
OSCODA         CLOUDY    28  14  54 MISG      30.32F
PELLSTON       CLOUDY    26  14  60 NW7       30.33F WCI  18
ROGERS CITY    CLOUDY    25  15  67 N8        30.33S WCI  16
TRAVERSE CITY  LGT SNOW  28  21  75 N5        30.34F WCI  23
$$
MIZ007>008-015-091800-
EASTERN UPPER MICHIGAN

CITY           SKY/WX    TMP DP  RH WIND       PRES   REMARKS
KINROSS        CLOUDY    20  11  68 CALM      30.33F
MACKINAC ISLAN CLOUDY    23  15  72 NW5       30.32F WCI  16
NEWBERRY       CLOUDY    21  15  76 N7        30.32S WCI  13
S. S. MARIE    CLOUDY    20   7  57 N6        30.33S WCI  12
MUNISING         N/A     26  14  60 N12       30.35F WCI  16
$$
MIZ004>006-011>014-085-091800-
CENTRAL UPPER MICHIGAN

CITY           SKY/WX    TMP DP  RH WIND       PRES   REMARKS
MANISTIQUE     MOSUNNY   24  20  85 NW6       30.35S WCI  17
ESCANABA       CLOUDY    25  14  63 NW12      30.39S WCI  14
MENOMINEE      SUNNY     24  10  55 NW9G16    30.43S WCI  14
SAWYER-GWINN   MOSUNNY   21  14  73 NW10      30.34S WCI  10
$$
MIZ001>003-009>011-084-091800-
WESTERN UPPER MICHIGAN

CITY           SKY/WX    TMP DP  RH WIND       PRES   REMARKS
IRON MOUNTAIN  MOSUNNY   21   9  59 NW16      30.37F WCI   7
HOUGHTON       LGT SNOW  18  11  74 NW16      30.38S VSB 3/4 WCI   3
COPPER HARBOR    N/A     23  17  78 N14       30.38F WCI  11
IRONWOOD       FLURRIES  15   9  76 W18       30.43F WCI  -2
$$

ABBREVIATIONS USED IN REMARKS
   TC - TEMPERATURE IN CELSIUS
  WCI - WIND CHILL INDEX
   HX - HEAT INDEX
  VSB - VISIBILITY





USA.gov is the U.S. government's official web portal to all federal, state and local government web resources and services.